Meteo pe oră la Dabrowa

Astăzi, 10 Aprilie, Sâmbătă

Timp Temperatura Precipitaţii Vânt Presiune Umiditate
00:00 +4°C° 0.1 mm 4 m/s 756 mmHg 88%
01:00 +4°C° 0 mm 3 m/s 756 mmHg 88%
02:00 +4°C° 0 mm 3 m/s 756 mmHg 89%
03:00 +4°C° 0 mm 3 m/s 756 mmHg 91%
04:00 +3°C° 0 mm 3 m/s 756 mmHg 93%
05:00 +3°C° 0 mm 3 m/s 756 mmHg 90%
06:00 +4°C° 0 mm 3 m/s 757 mmHg 87%
07:00 +4°C° 0 mm 3 m/s 757 mmHg 84%
08:00 +4°C° 0 mm 3 m/s 758 mmHg 75%
09:00 +4°C° 0 mm 3 m/s 758 mmHg 66%
10:00 +5°C° 0 mm 3 m/s 758 mmHg 57%
11:00 +5°C° 0 mm 3 m/s 759 mmHg 54%
12:00 +7°C° 0 mm 3 m/s 759 mmHg 51%
13:00 +7°C° 0 mm 3 m/s 759 mmHg 48%
14:00 +7°C° 0 mm 3 m/s 759 mmHg 48%
15:00 +7°C° 0 mm 3 m/s 760 mmHg 48%
16:00 +5°C° 0 mm 3 m/s 760 mmHg 48%
17:00 +5°C° 0 mm 2 m/s 760 mmHg 54%
18:00 +4°C° 0 mm 2 m/s 760 mmHg 59%
19:00 +4°C° 0 mm 1 m/s 760 mmHg 65%
20:00 +4°C° 0 mm 1 m/s 761 mmHg 64%
21:00 +4°C° 0 mm 1 m/s 761 mmHg 64%
22:00 +2°C° 0 mm 2 m/s 761 mmHg 63%
23:00 +2°C° 0 mm 2 m/s 761 mmHg 66%

Mâine, 11 Aprilie, Duminică

Timp Temperatura Precipitaţii Vânt Presiune Umiditate
00:00 +2°C° 0 mm 2 m/s 761 mmHg 69%
01:00 +2°C° 0 mm 2 m/s 760 mmHg 71%
02:00 +2°C° 0 mm 3 m/s 760 mmHg 77%
03:00 +3°C° 0 mm 3 m/s 760 mmHg 83%
04:00 +3°C° 0 mm 3 m/s 759 mmHg 89%
05:00 +3°C° 0.5 mm 4 m/s 759 mmHg 90%
06:00 +3°C° 0.5 mm 5 m/s 758 mmHg 91%
07:00 +3°C° 0.5 mm 6 m/s 758 mmHg 92%
08:00 +5°C° 0.1 mm 6 m/s 758 mmHg 86%
09:00 +8°C° 0.1 mm 6 m/s 757 mmHg 79%
10:00 +10°C° 0.1 mm 6 m/s 757 mmHg 72%
11:00 +13°C° 0 mm 6 m/s 756 mmHg 64%
12:00 +14°C° 0 mm 6 m/s 756 mmHg 56%
13:00 +16°C° 0 mm 6 m/s 756 mmHg 48%
14:00 +16°C° 0 mm 5 m/s 756 mmHg 49%
15:00 +16°C° 0 mm 5 m/s 756 mmHg 50%
16:00 +17°C° 0 mm 4 m/s 755 mmHg 51%
17:00 +14°C° 0 mm 4 m/s 756 mmHg 58%
18:00 +13°C° 0 mm 4 m/s 756 mmHg 64%
19:00 +11°C° 0 mm 3 m/s 756 mmHg 71%
20:00 +11°C° 0 mm 4 m/s 756 mmHg 72%
21:00 +10°C° 0 mm 5 m/s 756 mmHg 72%
22:00 +10°C° 0 mm 5 m/s 756 mmHg 73%
23:00 +9°C° 0 mm 5 m/s 756 mmHg 75%

Poimâine, 12 Aprilie, Luni

Timp Temperatura Precipitaţii Vânt Presiune Umiditate
00:00 +9°C° 0 mm 6 m/s 756 mmHg 77%
01:00 +8°C° 0 mm 6 m/s 756 mmHg 79%
02:00 +8°C° 0 mm 5 m/s 756 mmHg 82%
03:00 +7°C° 0 mm 5 m/s 756 mmHg 84%
04:00 +7°C° 0 mm 4 m/s 756 mmHg 87%
05:00 +6°C° 0 mm 4 m/s 756 mmHg 88%
06:00 +6°C° 0 mm 4 m/s 757 mmHg 90%
07:00 +6°C° 0 mm 4 m/s 757 mmHg 91%
08:00 +5°C° 0.1 mm 4 m/s 758 mmHg 91%
09:00 +3°C° 0.1 mm 5 m/s 759 mmHg 91%
10:00 +3°C° 0.1 mm 5 m/s 759 mmHg 90%
11:00 +3°C° 0 mm 5 m/s 760 mmHg 86%
12:00 +3°C° 0 mm 5 m/s 760 mmHg 82%
13:00 +3°C° 0 mm 6 m/s 761 mmHg 78%
14:00 +3°C° 0 mm 6 m/s 761 mmHg 78%
15:00 +3°C° 0 mm 6 m/s 761 mmHg 77%
16:00 +3°C° 0 mm 6 m/s 761 mmHg 77%
17:00 +2°C° 0 mm 5 m/s 762 mmHg 76%
18:00 +2°C° 0 mm 5 m/s 762 mmHg 74%
19:00 +2°C° 0 mm 5 m/s 763 mmHg 73%
20:00 +2°C° 0 mm 5 m/s 763 mmHg 73%
21:00 +3°C° 0 mm 4 m/s 763 mmHg 73%
22:00 +3°C° 0 mm 4 m/s 763 mmHg 72%
23:00 +3°C° 0 mm 4 m/s 763 mmHg 72%

13 Aprilie, Marţi

Timp Temperatura Precipitaţii Vânt Presiune Umiditate
00:00 +3°C° 0 mm 4 m/s 763 mmHg 71%
01:00 +2°C° 0 mm 5 m/s 763 mmHg 71%
02:00 +2°C° 0 mm 5 m/s 763 mmHg 74%
03:00 +1°C° 0 mm 5 m/s 763 mmHg 78%
04:00 +1°C° 0 mm 5 m/s 763 mmHg 81%
05:00 +1°C° 0 mm 5 m/s 763 mmHg 81%
06:00 +2°C° 0 mm 5 m/s 763 mmHg 80%
07:00 +2°C° 0 mm 5 m/s 764 mmHg 80%
08:00 +2°C° 0 mm 5 m/s 764 mmHg 75%
09:00 +3°C° 0 mm 5 m/s 764 mmHg 70%
10:00 +3°C° 0 mm 5 m/s 764 mmHg 65%
11:00 +5°C° 0 mm 5 m/s 764 mmHg 64%
12:00 +5°C° 0 mm 5 m/s 764 mmHg 63%
13:00 +5°C° 0 mm 5 m/s 765 mmHg 62%
14:00 +5°C° 0 mm 5 m/s 765 mmHg 62%
15:00 +3°C° 0 mm 5 m/s 765 mmHg 63%
16:00 +3°C° 0 mm 5 m/s 765 mmHg 64%
17:00 +4°C° 0 mm 4 m/s 765 mmHg 65%
18:00 +3°C° 0 mm 3 m/s 765 mmHg 67%
19:00 +3°C° 0 mm 2 m/s 765 mmHg 69%
20:00 +3°C° 0 mm 2 m/s 765 mmHg 73%
21:00 +3°C° 0 mm 2 m/s 765 mmHg 77%
22:00 +1°C° 0 mm 3 m/s 765 mmHg 80%
23:00 +1°C° 0 mm 3 m/s 765 mmHg 82%

14 Aprilie, Miercuri

Timp Temperatura Precipitaţii Vânt Presiune Umiditate
00:00 +1°C° 0 mm 3 m/s 765 mmHg 84%
01:00 +1°C° 0 mm 3 m/s 764 mmHg 87%
02:00 +2°C° 0 mm 2 m/s 764 mmHg 87%
03:00 +2°C° 0 mm 2 m/s 764 mmHg 87%
04:00 +2°C° 0 mm 2 m/s 764 mmHg 87%
05:00 +4°C° 0 mm 1 m/s 765 mmHg 84%
06:00 +4°C° 0 mm 1 m/s 765 mmHg 81%
07:00 +5°C° 0 mm 1 m/s 765 mmHg 78%
08:00 +5°C° 0 mm 2 m/s 765 mmHg 71%
09:00 +5°C° 0 mm 3 m/s 765 mmHg 65%
10:00 +5°C° 0 mm 3 m/s 765 mmHg 58%
11:00 +6°C° 0 mm 4 m/s 765 mmHg 57%
12:00 +6°C° 0 mm 4 m/s 765 mmHg 56%
13:00 +6°C° 0 mm 5 m/s 765 mmHg 56%
14:00 +5°C° 0 mm 5 m/s 765 mmHg 57%
15:00 +5°C° 0 mm 5 m/s 765 mmHg 58%
16:00 +3°C° 0 mm 5 m/s 765 mmHg 59%
17:00 +4°C° 0 mm 4 m/s 766 mmHg 63%
18:00 +3°C° 0 mm 4 m/s 766 mmHg 67%
19:00 +1°C° 0 mm 4 m/s 766 mmHg 72%
20:00 0°C° 0 mm 4 m/s 766 mmHg 72%
21:00 0°C° 0 mm 4 m/s 766 mmHg 72%
22:00 0°C° 0 mm 4 m/s 766 mmHg 72%
23:00 0°C° 0 mm 4 m/s 766 mmHg 72%

15 Aprilie, Joi

Timp Temperatura Precipitaţii Vânt Presiune Umiditate
00:00 0°C° 0 mm 5 m/s 766 mmHg 72%
01:00 0°C° 0 mm 5 m/s 766 mmHg 72%
02:00 0°C° 0 mm 5 m/s 766 mmHg 72%
03:00 0°C° 0 mm 5 m/s 766 mmHg 73%
04:00 -1°C° 0 mm 6 m/s 766 mmHg 74%
05:00 +1°C° 0 mm 6 m/s 766 mmHg 73%
06:00 +1°C° 0 mm 6 m/s 766 mmHg 71%
07:00 +2°C° 0 mm 6 m/s 767 mmHg 70%
08:00 +2°C° 0 mm 7 m/s 767 mmHg 67%
09:00 +3°C° 0 mm 7 m/s 767 mmHg 65%
10:00 +4°C° 0 mm 7 m/s 767 mmHg 62%
11:00 +4°C° 0 mm 7 m/s 767 mmHg 64%
12:00 +4°C° 0 mm 8 m/s 767 mmHg 66%
13:00 +4°C° 0 mm 8 m/s 767 mmHg 68%
14:00 +4°C° 0 mm 8 m/s 767 mmHg 69%
15:00 +4°C° 0 mm 8 m/s 767 mmHg 70%
16:00 +4°C° 0 mm 8 m/s 767 mmHg 71%
17:00 +2°C° 0 mm 8 m/s 767 mmHg 72%
18:00 +2°C° 0 mm 8 m/s 767 mmHg 73%
19:00 +1°C° 0 mm 8 m/s 767 mmHg 74%
20:00 +1°C° 0 mm 8 m/s 767 mmHg 74%
21:00 +2°C° 0 mm 7 m/s 767 mmHg 74%
22:00 +2°C° 0 mm 7 m/s 768 mmHg 75%
23:00 +2°C° 0 mm 7 m/s 768 mmHg 79%
Arată mai mult

Formular de consimțământ

Meteoprog și furnizorii noștri de servicii pot stoca și accesa date personale, precum cookies, identificatori de dispozitiv sau alte tehnologii similare pe dispozitivul dumneavoastră și procesa astfel de date pentru a personaliza conținutul și reclamele, dar și pentru a oferi caracteristici de social media și pentru a analiza traficul.

  • Stocarea și/sau accesarea informațiilor pe dispozitivul dumneavoastră

    Cookies, identificatori de dispozitiv sau alte informații pot fi stocate sau accesate pe dispozitiv în scopurile indicate mai sus.

  • Reclame și conținut personalizat, evaluarea reclamelor și a conținutului, informații despre audiențe și dezvoltarea produselor

    Reclamele și conținutul pot fi personalizate pe baza unui profil. Pot fi adăugate date suplimentare pentru a personaliza mai bine reclamele și conținutul. Performanța reclamelor și conținutului poate fi măsurată. Pot fi obținute informații despre utilizatorii care au văzut reclamele și conținutul. Aceste date pot fi utilizate pentru a dezvolta sau îmbunătăți experiența utilizatorilor, sistemele și software-ul.

Dând clic pe ‘Sunt de acord’, permiteți utilizarea cookie-urilor menționate, a identificatorilor de dispozitiv, balizelor web sau altor tehnologii similare. Setările pot fi modificate din browser-ul dispozitivului dumneavoastră.

În anumite scopuri, interesele legitime pot prima asupra consimțământului. Puteți citi mai multe informații în acest sens în Politica privind Confidențialitatea Datelor și Cookie.